Aeroporto :
LOGIN :

Iscrizione | Disclaimer

   EN    FR    IT 

 










Sommario :    VFR   VFR Marginale   IFR   IFR Intensivo   IFR Molto Intensivo
Visibilità : 
Base nubi : 
>= 8 km
>= 3000ft
5 / 8 km
1000 / 3000 ft
1500m / 5 km
500 / 1000 ft
800 / 1500m
200 / 500 ft
< 800m
< 200 ft
Simboli :   Temporali  Nebbia  Neve Forte  Precipitazioni Forti  Vento > 20 kt
SIGMETs :   Varie  Temporali  Ghiacco  Turbolenza  Onda orograficha  Ceneri Vulcaniche






- Altitudine del aeroporto : 74 ft
- Codice IATA : NDZ


ETMN - Cuxhaven Nordholz Sea AB

ULTIMO METAR :
  • 020720Z 15007KT 9999 FEW050 BKN210 06/04 Q1002 BLU+

METARs OBSOLETI :
  • 020620Z 14006KT 8000 MIFG FEW060 BKN210 05/04 Q1002 BLU+
  • 020520Z 14007KT 9999 FEW060 BKN240 05/04 Q1002 BLU+
  • 020420Z 13009KT 9999 BKN250 05/04 Q1002 BLU+
  • 012020Z 14006KT 9999 BKN160 BKN240 07/05 Q1004 BLU
  • 020403Z 12008KT 9999 BKN250 05/04 Q1001 BLU+
  • 020320Z AUTO 14006KT 6000 // ////// 05/04 Q1002 ///

Previsioni scadute.



MetMap, La meteo Aeronautica in un colpo d'occhio ! - Copyright ORBIFLY Dicembre 2007 - Disclaimer

ORBIFLY MET'MAP TEAM :

Programmazione e sviluppo : Alexandra Zaïnal
Concezione : Baudouin d'Aumeries
Supporto tecnico e logistico : Manuel Goepfert
Aiuto : Marc-Olivier Méhu
Aiuto per la traduzione : Arnaldo La Scala




FONTI E CREDITI :

   NOAA